Theta_e
295 294 294 294 294 295 295 296 295 296 295 296 295 296 296 297 299 298 299 301 303 305 307 304 307 308 310 313 314 316 318 318 317 320 316 312 315 316
295 294 294 294 294 294 295 296 295 295 296 295 295 296 296 296 296 296 297 299 301 303 304 305 305 303 306 307 311 312 314 316 317 318 320 320 317 322
296 294 294 294 294 295 295 295 294 294 295 294 296 296 295 295 294 294 296 296 297 301 302 302 303 305 304 304 306 309 310 310 312 312 314 316 316 316
297 295 295 294 294 294 296 295 293 293 294 294 294 293 294 292 292 292 292 293 294 295 299 301 302 303 303 303 303 304 305 306 310 310 310 310 311 312
296 295 294 294 294 295 296 295 294 293 293 293 293 292 292 291 291 291 290 292 293 291 294 297 299 302 302 301 303 303 303 303 303 306 307 307 307 307
297 295 294 293 295 295 297 296 295 293 293 292 293 292 291 291 290 290 289 291 292 290 293 293 296 300 300 299 299 300 302 303 302 301 300 301 302 303
297 295 293 293 295 296 297 296 295 295 294 293 293 292 293 291 289 290 289 289 290 290 291 292 292 295 297 297 297 297 298 300 302 303 302 300 298 298
297 295 293 292 293 295 296 296 295 295 295 293 292 290 290 290 290 289 289 289 288 289 290 291 291 291 293 295 296 296 296 296 297 300 302 303 302 301
296 294 293 292 292 295 294 294 293 293 293 292 291 290 290 290 290 290 289 289 289 290 290 290 290 290 292 295 295 294 295 295 295 297 297 299 301 301
296 294 293 292 292 295 294 292 293 293 293 292 292 292 292 291 290 290 290 290 290 290 290 290 289 290 292 293 293 292 293 293 294 294 294 295 296 297
294 294 292 292 293 294 293 291 293 293 292 293 292 292 292 291 291 289 289 289 289 290 290 290 289 289 291 291 290 290 290 291 291 293 293 293 293 293
295 294 292 293 294 293 292 291 291 291 291 292 292 292 292 291 291 290 289 288 288 289 289 289 289 288 288 289 289 289 288 289 289 290 291 291 292 292
295 293 292 292 293 292 292 290 291 292 291 291 291 293 292 292 292 291 290 290 289 289 289 289 289 288 288 288 288 288 288 289 289 290 290 290 291 292
296 293 293 292 292 292 292 291 291 289 289 290 290 290 290 290 290 291 291 291 291 290 290 289 289 289 288 288 288 289 289 289 289 289 289 289 289 290
295 294 294 293 291 290 290 291 290 289 289 289 289 290 290 290 290 290 291 291 291 291 290 290 290 290 290 289 289 290 289 289 289 289 289 290 290 290
294 293 292 292 292 292 292 290 290 289 289 289 289 289 289 289 289 289 290 290 290 289 290 290 290 290 290 290 290 290 290 289 289 289 289 290 289 289
292 290 291 291 291 290 290 291 291 291 289 289 289 289 288 289 289 289 289 289 289 289 289 289 289 289 289 289 289 289 289 289 290 290 290 290 289 289
290 290 291 290 290 290 290 290 290 291 290 289 289 288 288 288 289 288 288 288 288 288 288 289 289 288 288 288 289 288 289 289 289 289 289 289 288 288
290 290 290 290 290 290 290 289 290 290 290 289 289 288 288 288 288 288 288 288 288 288 288 288 288 288 286 288 288 288 289 289 289 289 288 288 288 288
289 289 289 289 289 289 289 289 289 289 289 289 288 288 288 288 288 287 287 288 288 287 287 287 288 288 288 288 288 288 289 289 289 289 288 287 288 288
290 289 289 289 289 289 289 289 289 289 289 289 288 288 288 288 287 287 287 287 287 287 287 287 288 289 289 288 288 288 288 289 287 287 287 287 287 288
289 289 289 288 288 288 288 288 288 288 288 288 288 288 288 288 287 286 287 287 287 287 287 287 288 288 288 288 288 288 288 287 287 287 288 288 288 287
289 288 288 288 288 288 288 288 288 287 287 287 287 288 288 287 286 286 287 286 287 287 286 286 287 287 287 287 287 287 287 286 286 287 288 287 287 287
Wind_Speed
13 12 13 16 16 17 19 20 11 7 7 14 15 24 23 22 24 24 25 27 30 34 27 22 27 27 25 23 27 22 16 10 5 5 3 6 9 5
14 12 12 15 15 16 22 20 18 13 5 17 23 22 19 20 19 23 23 20 27 26 28 26 24 21 20 23 23 25 24 16 18 21 11 9 10 10
13 11 13 14 16 13 18 17 18 18 10 18 16 19 19 21 23 22 18 19 19 25 23 23 22 18 19 19 19 22 20 17 19 19 18 23 27 23
13 13 14 14 13 15 14 13 17 17 15 13 15 16 14 19 20 21 20 16 17 19 19 19 19 17 16 17 18 17 17 19 17 17 18 18 20 21
12 13 13 12 14 14 10 11 14 17 16 14 15 14 17 18 21 17 19 16 15 18 15 15 16 18 18 16 14 13 15 16 13 16 17 17 17 17
12 12 12 11 13 12 12 11 10 14 16 17 17 16 14 13 16 18 20 18 16 21 15 15 14 12 15 16 15 13 12 11 11 12 11 10 13 14
12 10 11 10 9 10 15 12 9 13 13 13 13 16 13 12 11 14 14 17 5 22 18 19 15 15 14 16 16 14 12 9 7 8 5 6 8 9
14 10 12 8 8 9 12 10 10 13 14 9 12 11 13 14 14 14 13 11 5 15 17 16 17 16 12 15 13 14 11 8 6 5 5 5 4 3
13 9 11 10 7 10 10 10 8 9 12 9 13 11 12 13 13 13 11 11 9 11 13 11 17 16 11 15 12 13 14 13 10 8 5 4 3 3
11 9 9 9 7 10 11 8 7 8 9 6 9 11 10 9 9 9 10 12 8 9 13 8 16 13 14 12 16 12 12 13 13 10 8 7 6 6
5 8 8 7 7 8 10 8 7 9 6 5 5 5 7 7 7 5 11 10 5 7 16 6 13 10 7 9 13 14 14 14 13 12 11 10 9 9
9 9 6 6 7 8 9 8 10 11 9 6 7 8 5 4 7 10 7 7 7 4 11 8 12 12 5 6 16 13 18 16 13 12 11 10 10 11
8 8 5 4 8 6 5 8 10 10 10 9 8 3 4 6 6 5 8 7 4 2 4 8 6 9 6 7 11 12 19 17 16 14 14 12 11 11
9 7 7 8 6 5 5 5 7 8 7 7 7 8 8 8 8 7 5 7 9 10 6 4 4 3 2 3 3 14 15 14 10 13 15 12 11 11
9 8 6 7 6 3 1 4 5 7 8 8 8 8 8 8 7 6 4 7 9 11 12 12 12 11 9 8 9 13 12 14 11 13 13 13 13 12
7 9 9 6 7 7 3 2 3 6 7 7 8 8 7 8 7 8 6 6 6 8 8 9 7 11 16 16 15 18 14 5 9 11 11 13 13 12
7 7 5 3 3 3 2 2 2 5 7 7 7 8 8 9 8 9 8 7 7 9 10 10 9 7 6 8 12 11 10 7 7 12 14 15 16 13
6 6 5 4 4 3 1 2 3 4 5 6 6 7 8 9 9 9 9 8 9 11 12 12 12 10 10 5 8 11 10 8 11 11 13 16 17 15
8 7 7 6 5 4 2 1 2 3 3 4 5 6 6 8 9 9 9 9 10 10 11 11 9 8 3 4 7 4 11 11 12 12 11 13 15 18
10 9 8 7 6 5 3 3 1 1 1 2 3 4 6 7 8 9 9 9 9 9 10 9 10 6 5 2 3 8 7 10 10 9 13 14 14 9
14 11 10 9 7 6 5 4 3 2 3 1 1 3 5 7 7 8 8 8 8 8 9 12 11 5 4 4 4 5 9 3 8 9 11 11 8 8
15 14 12 10 9 7 6 5 5 5 2 1 0 1 4 6 7 7 8 8 7 6 8 10 8 5 3 3 5 7 6 10 13 8 5 6 5 4
17 15 14 12 11 9 8 7 7 6 4 1 0 2 5 6 6 6 5 5 5 6 10 9 9 7 5 6 6 7 9 12 13 14 10 11 10 11
Wind_Direction
325 329 326 332 335 338 341 329 310 323 329 341 343 353 359 10 12 16 15 20 24 31 49 46 49 48 41 53 60 65 76 88 123 115 138 150 156 129
320 326 328 328 328 340 338 344 338 314 316 339 335 356 4 14 12 19 19 30 24 27 37 40 55 56 53 57 60 61 65 67 80 74 81 194 162 151
319 327 328 330 332 337 343 347 349 347 322 330 351 7 20 9 8 15 9 17 23 25 33 35 34 50 60 69 64 69 64 53 58 63 63 75 85 87
330 327 328 327 325 332 340 345 351 351 344 330 338 353 20 9 0 6 12 13 13 21 29 35 34 36 53 68 74 79 78 71 68 71 67 66 76 75
329 329 327 329 323 332 328 340 352 351 350 345 335 345 6 8 360 2 16 18 22 18 31 40 35 42 51 52 62 70 76 82 80 78 72 69 73 77
324 318 327 319 314 319 330 331 337 348 348 348 344 341 349 5 24 5 358 22 15 15 36 48 60 68 54 46 47 51 67 70 63 83 78 78 77 70
320 313 322 318 320 327 335 342 349 347 341 338 334 346 352 7 9 9 4 353 21 21 20 23 33 68 64 50 37 34 38 44 59 73 85 78 77 80
313 301 324 319 319 334 341 338 349 348 346 342 348 342 341 344 351 2 4 9 359 358 8 28 26 27 57 64 33 31 31 35 43 42 43 51 50 52
309 286 319 330 314 343 334 334 335 335 340 353 351 349 337 345 345 356 359 357 357 359 3 11 13 21 58 57 51 50 37 31 32 37 33 24 29 41
307 280 311 327 337 338 331 333 333 326 350 340 345 354 347 352 348 342 341 349 14 29 17 17 9 26 61 59 43 34 36 37 29 20 8 360 349 341
316 292 292 303 342 337 331 341 335 331 326 309 340 353 9 19 13 3 16 19 19 19 16 21 15 14 59 46 22 27 31 19 17 25 28 17 358 334
301 310 269 294 321 328 326 333 338 347 348 342 323 311 308 10 11 27 22 26 10 346 12 25 11 14 351 14 11 26 10 19 31 21 11 3 2 354
298 296 278 289 313 311 316 333 338 336 337 338 338 348 326 334 324 337 12 33 13 306 327 354 359 10 15 339 340 356 3 8 4 33 33 27 15 17
275 291 284 310 305 297 299 329 342 343 350 15 21 23 8 1 353 324 302 337 345 336 343 306 282 301 296 294 299 337 354 5 15 10 357 2 352 341
254 264 276 291 294 279 327 338 340 2 11 15 13 10 10 9 7 13 336 309 317 325 322 286 278 279 280 280 297 314 339 3 12 2 359 354 347 340
241 253 275 268 275 274 279 353 22 15 13 12 9 7 10 17 25 13 12 9 355 7 21 19 5 278 268 274 281 295 307 298 338 353 346 347 344 328
259 267 220 235 248 183 162 82 67 33 29 19 10 9 11 11 18 24 27 21 26 7 7 19 13 356 333 305 293 331 337 325 332 341 342 336 336 337
236 223 210 191 187 189 189 109 80 45 31 20 14 13 12 11 8 18 21 24 17 11 11 12 13 16 9 42 45 39 26 3 338 337 340 337 332 342
221 213 200 182 175 178 185 147 115 58 41 18 17 13 14 13 6 7 8 14 15 16 15 11 9 18 29 8 355 10 356 351 338 334 343 336 322 322
209 203 195 184 178 189 188 187 187 158 69 61 37 26 14 2 359 359 1 1 359 1 4 12 10 6 348 339 323 336 352 331 329 330 331 326 325 339
210 205 198 189 180 188 190 197 191 150 141 111 45 32 15 357 355 359 355 357 357 1 358 355 352 349 327 321 328 331 339 24 358 330 323 319 314 326
199 196 191 190 188 189 199 202 195 181 199 258 257 2 7 3 353 354 0 359 4 6 357 356 8 14 7 351 344 338 357 356 353 351 7 5 337 301
197 203 206 201 197 192 196 201 199 185 185 211 280 15 351 356 0 359 1 2 16 18 11 14 21 28 26 28 3 357 350 354 351 347 10 17 9 359